Location: Eckley
(40.9930°N, 75.8630°W)
Time: 08:21:49
(UTC-05:00)

Daily predictions for brighter satellites

Satellite Brightness Start Highest point End
(mag) Time Altitude Azimuth Time Altitude Azimuth Time Altitude Azimuth
COSMOS 2441 4.4 17:34:21 10° SSE 17:39:08 62° ENE 17:43:55 10° N
CORIOLIS 4.2 17:33:57 10° SSE 17:39:18 83° ENE 17:44:41 10° NNW
SMAP 3.2 17:34:48 10° SSE 17:39:27 84° WSW 17:44:09 10° NNW
Cosmos 1666 Rocket 4.5 17:40:34 10° SSE 17:44:13 27° E 17:47:55 10° NNE
CENTAUR R/B 4.2 17:39:09 10° W 17:44:29 28° NW 17:50:24 10° NNE
Cosmos 1980 4.4 17:42:21 10° SW 17:47:54 55° WNW 17:53:31 10° NNE
Lacrosse 4 Rocket 2.5 17:47:38 10° N 17:50:56 23° NE 17:54:13 10° ESE
Cosmos 1626 2.7 17:50:45 10° SSE 17:54:11 36° E 17:57:38 10° NNE
USA 229 DEB 4.2 17:51:14 10° S 17:57:35 42° ESE 18:04:01 10° NE
USA 229 4.2 17:51:21 10° S 17:57:41 42° ESE 18:04:06 10° NE
Cosmos 1151 Rocket 4.1 17:55:21 10° NNW 17:59:30 50° W 18:03:40 10° SSW
Resurs 01 Rocket 3.2 17:58:49 10° E 18:01:13 15° ENE 18:03:37 10° NNE
Cosmos 2219 Rocket 4.0 17:58:27 10° WSW 18:03:16 29° NW 18:08:07 10° N
Cosmos 2058 3.3 18:00:48 10° SSW 18:04:51 67° W 18:08:57 10° N
Meteor 1-11 4.5 18:00:11 10° SSW 18:05:53 76° W 18:11:41 10° N
Cosmos 1184 Rocket 3.4 18:02:59 10° SSE 18:06:03 35° E 18:09:08 10° NNE
Cosmos 1726 4.0 18:04:26 10° NNW 18:07:54 35° W 18:11:20 10° SSW
CZ-4C R/B 4.5 18:05:05 10° N 18:08:05 13° NNE 18:11:11 10° NE
Cosmos 2279 Rocket 4.1 18:01:59 10° N 18:08:14 86° W 18:14:28 10° S
Iridium 4 Rocket 4.0 18:06:46 10° SE 18:10:21 25° E 18:13:48 10° NNE
Cosmos 1603 4.3 18:08:03 10° SSE 18:13:02 34° ESE 18:17:32 12° NE
Cosmos 2333 Rocket 3.9 18:09:13 10° WSW 18:14:08 30° NW 18:19:05 10° N
Cosmos 1461 3.6 18:10:58 10° SW 18:15:03 52° NW 18:19:01 10° NNE
Cosmos 304 Rocket 4.2 18:10:36 10° SSW 18:15:22 64° WNW 18:20:09 10° NNE
Aureole 1 Rocket 4.1 18:10:35 10° S 18:15:54 53° E 18:22:51 10° NNE
FREGAT/IRIS 3.6 18:13:25 10° SE 18:16:01 25° ENE 18:18:37 10° NNE
Lacrosse 5 rocket 3.8 18:13:21 10° WNW 18:16:27 24° SW 18:19:39 10° S
DMSP B5D1-3 4.5 18:13:14 10° NNE 18:18:20 66° ESE 18:23:23 10° S
Cosmos 2278 Rocket 4.1 18:14:23 10° NW 18:19:25 33° WSW 18:24:25 10° SSW
Cosmos 1242 Rocket 3.5 18:16:45 10° NNE 18:19:40 25° ENE 18:22:35 10° SE
Cosmos 1455 2.1 18:17:28 10° N 18:21:16 61° E 18:25:02 10° SSE
Tiangong 1 2.5 18:19:18 10° SSW 18:21:46 24° SSE 18:22:42 20° ESE
Cosmos 1805 Rocket 3.8 18:17:39 10° SSW 18:22:06 76° W 18:26:35 10° N
Cosmos 1356 Rocket 3.2 18:20:06 10° S 18:24:04 88° E 18:28:06 10° N
SKYMED 2 3.8 18:21:18 10° N 18:25:39 72° WNW 18:29:56 10° SSW
Nadezhda 4 Rocket 3.9 18:20:56 10° S 18:27:09 72° E 18:33:27 10° NNE
Cosmos 2242 Rocket 3.7 18:25:46 10° N 18:30:05 51° E 18:34:26 10° SSE
Cosmos 1538 Rocket 4.2 18:25:45 10° SSW 18:31:03 74° WNW 18:36:26 10° NNE
Sich 1 3.0 18:28:27 10° S 18:32:54 90° NW 18:37:21 10° N
Cosmos 1703 4.3 18:32:33 10° SSW 18:36:18 46° W 18:40:04 10° N
Coronas F rocket 0.8 18:35:20 10° S 18:37:43 87° WNW 18:37:55 71° N
Cosmos 923 Rocket 4.0 18:33:45 10° S 18:38:51 58° ESE 18:42:58 16° NNE
Cosmos 2237 Rocket 4.3 18:38:45 10° WSW 18:43:11 23° NW 18:47:40 10° N
SJ-6B 2.8 18:39:48 10° SSE 18:43:52 73° ENE 18:48:02 10° N
Cosmos 1633 Rocket 3.2 18:40:20 10° SSW 18:44:43 76° W 18:49:08 10° N
Cosmos 1680 Rocket 3.6 18:39:51 10° S 18:44:52 50° ESE 18:47:47 24° NE
Cosmos 2369 Rocket 2.9 18:41:33 10° N 18:46:33 31° ENE 18:47:04 30° ENE
NOSS 3-1 (C) 4.0 18:43:36 10° S 18:48:43 34° ESE 18:50:00 31° E
Cosmos 1092 Rocket 3.9 18:44:13 10° S 18:50:32 79° E 18:56:54 10° N
SL-16 R/B 3.3 18:46:42 10° SW 18:52:02 42° WNW 18:57:25 10° N
Lacrosse 5 3.7 18:53:02 10° NNW 18:56:06 16° NNE 18:56:21 16° NNE
ATLAS 3B R/B 4.4 18:56:08 10° N 18:59:30 14° NNE 19:00:18 13° NNE
USA 215 3.2 18:56:43 28° ESE 19:00:16 64° NE 19:06:45 10° NW
ALOS 2.1 18:57:02 10° SSE 19:01:39 65° ENE 19:06:17 10° N
Cosmos 1862 Rocket 3.3 19:04:40 10° N 19:09:04 78° E 19:13:24 10° S
FENGYUN 3A 3.5 19:06:02 10° SSE 19:11:22 78° ENE 19:16:46 10° N
BREEZE-M DEB (TANK) 4.5 19:07:17 10° SSW 19:11:49 43° ESE 19:15:10 34° E
Cosmos 292 Rocket 3.8 19:07:22 10° SSW 19:12:06 75° WNW 19:14:25 30° N
Cosmos 2195 Rocket 4.3 19:06:40 10° S 19:12:44 77° E 19:18:54 10° N
Genesis I 4.4 19:10:21 10° SSW 19:12:42 32° S 19:12:42 32° S
Cosmos 2112 Rocket 3.9 19:16:28 10° SSW 19:21:41 88° WNW 19:23:17 46° NNE
Meteor 2-20 Rocket 4.4 19:16:01 10° S 19:21:57 56° E 19:22:00 56° E
Cosmos 1943 3.1 19:23:13 10° SSW 19:28:35 67° SE 19:28:35 67° SE
Lacrosse 4 Rocket 3.1 19:26:04 10° NW 19:29:38 30° WSW 19:33:02 11° S
ATLAS 5 CENTAUR R/B 3.5 19:25:55 10° NNW 19:29:30 28° NNE 19:29:30 28° NNE
Cosmos 1933 Rocket 4.4 19:29:03 10° SSW 19:33:21 49° W 19:35:24 28° NNW
Resurs 01 Rocket 2.2 19:32:50 10° S 19:37:12 57° W 19:41:36 10° NNW
Cosmos 1417 Rocket 4.3 19:33:11 10° N 19:39:23 85° E 19:45:31 10° S
H-2A ROCKET BODY 3.8 19:28:22 10° W 19:43:22 33° SSW 19:45:25 27° S
Cosmos 1943 Rocket 3.9 19:42:40 10° NNW 19:44:33 21° N 19:44:33 21° N
Spot 2 Rocket 4.4 19:46:40 10° S 19:51:30 46° W 19:56:22 10° NNW
Cosmos 1655 Rocket 4.1 19:45:18 10° SSW 19:51:39 73° W 19:58:01 10° N
CZ-4C R/B 3.9 19:52:18 10° NNW 19:56:23 30° N 19:56:23 30° N
NOSS 3-1 (A) 3.9 19:56:04 10° SSW 20:00:05 48° SSW 20:00:05 48° SSW
Cosmos 2369 Rocket 3.7 20:25:25 10° NW 20:28:57 31° WNW 20:28:57 31° WNW
USA 215 4.4 20:44:05 37° WSW 20:44:05 37° WSW 20:49:29 10° WNW
